Location: Newark
(49.2191°N, 12.6671°E)
Time: 04:23:17
(UTC+00:00)

Transit 4A - Pass Details

Date: 31 January 2020
Orbit: 872 x 973 km, 66.8° (Epoch: 19 February)

Event Time Altitude Azimuth Distance (km) Brightness Sun altitude
Rises 07:02:32 0° 270° (W) 3,513 10.4 2.0°
Reaches altitude 10° 07:05:44 10° 287° (WNW) 2,559 9.6 2.5°
Maximum altitude 07:10:04 21° 334° (NNW) 1,899 9.1 3.1°
Drops below altitude 10° 07:14:23 10° 22° (NNE) 2,536 10.1 3.7°
Sets 07:17:32 0° 39° (NE) 3,472 11.0 4.1°
